Regional Weather Roundup
Issued by NWS

Home | Current Version | Previous Version | Text Only | Print | Product List | Glossary Off
Versions: 1 2 3 4 5 6 7 8 9 10 11 12 13 14 15 16 17 18 19 20 21 22 23 24 25 26 27 28 29 30 31 32 33 34 35 36 37 38 39 40 41 42 43 44 45 46 47 48 49 50

000
ASUS43 KBIS 011202
RWRND

NORTH DAKOTA REGIONAL WEATHER ROUNDUP
NATIONAL WEATHER SERVICE BISMARCK ND
700 AM CDT SAT OCT 01 2016

NOTE: "FAIR" INDICATES FEW OR NO CLOUDS BELOW 12,000 FEET WITH NO
SIGNIFICANT WEATHER AND/OR OBSTRUCTIONS TO VISIBILITY.


NDZ001>003-009>011-017-011300-
NORTHWEST NORTH DAKOTA

CITY           SKY/WX    TMP DP  RH WIND       PRES   REMARKS
WILLISTON      CLEAR     46  43  89 N3        29.98S
6HR MIN TEMP:  46; 6HR MAX TEMP:  53;

MINOT          CLEAR     47  45  93 CALM      30.01S
MINOT AFB      CLEAR     47  45  92 E5        30.01R
$$

NDZ018>021-031>035-040>046-011300-
SOUTHWEST NORTH DAKOTA

CITY           SKY/WX    TMP DP  RH WIND       PRES   REMARKS
BISMARCK       PTCLDY    51  45  79 SE8       30.02S
6HR MIN TEMP:  51; 6HR MAX TEMP:  61;

DICKINSON      CLEAR     46  43  89 S8        29.98S
GARRISON         N/A     51  47  86 E3        30.00F
6HR MIN TEMP:  51; 6HR MAX TEMP:  57;

HETTINGER ARPT CLEAR     44  41  89 CALM      30.00S
$$

NDZ004>008-012>016-024-026-027-054-011300-
NORTHEAST NORTH DAKOTA

CITY           SKY/WX    TMP DP  RH WIND       PRES   REMARKS
GRAND FORKS    MOCLDY    52  48  86 SE6       30.14F
GRND FRKS AFB  CLOUDY    51  49  92 SE6       30.14F
DEVILS LAKE    PTCLDY    56  49  77 SE12      30.10S
$$

NDZ022-023-025-028>030-036>039-047>053-011300-
SOUTHEAST NORTH DAKOTA

CITY           SKY/WX    TMP DP  RH WIND       PRES   REMARKS
FARGO          MOCLDY    54  49  83 SE10      30.15S
6HR MIN TEMP:  54; 6HR MAX TEMP:  57;

JAMESTOWN      CLOUDY    51  47  86 SE9       30.09F
$$




USA.gov is the U.S. government's official web portal to all federal, state and local government web resources and services.